Location: Poughquag
(41.6090°N, 73.6820°W)
Time: 04:23:43
(UTC-04:00)

Courier 1B Rocket - All Passes

Search period start: 29 September 2020 00:00
Search period end: 09 October 2020 00:00
Orbit: 920 x 1202 km, 28.2° (Epoch: 28 September)

Date Brightness Start Highest point End Pass type
(mag) Time Alt. Az. Time Alt. Az. Time Alt. Az.
29 Sep - 06:35:47 10° SSW 06:38:57 14° SSE 06:42:05 10° SE daylight
29 Sep - 08:26:36 10° SW 08:31:21 23° S 08:36:05 10° SE daylight
29 Sep - 10:19:14 10° WSW 10:23:50 22° S 10:28:31 10° SE daylight
29 Sep - 12:13:59 10° SW 12:16:14 12° SSW 12:18:31 10° S daylight
30 Sep - 05:36:53 10° S 05:38:17 11° SSE 05:39:40 10° SE visible
30 Sep - 07:26:06 10° SW 07:30:37 21° S 07:35:06 10° ESE daylight
30 Sep - 09:18:21 10° SW 09:23:06 23° S 09:27:54 10° SE daylight
30 Sep - 11:12:05 10° SW 11:15:32 15° SSW 11:19:03 10° SSE daylight
01 Oct - 06:25:45 10° SSW 06:29:56 18° SSE 06:34:01 10° SE visible
01 Oct - 08:17:32 10° SW 08:22:24 24° S 08:27:13 10° SE daylight
01 Oct - 10:10:43 10° SW 10:14:50 18° SSW 10:19:00 10° SSE daylight
02 Oct - 05:25:41 10° SSW 05:29:12 15° SSE 05:32:39 10° SE visible
02 Oct - 07:16:48 10° SW 07:21:39 23° S 07:26:25 10° SE daylight
02 Oct - 09:09:36 10° WSW 09:14:08 21° S 09:18:40 10° SE daylight
02 Oct - 11:04:49 10° SW 11:06:28 11° SSW 11:08:09 10° S daylight
03 Oct - 04:26:16 10° S 04:28:30 12° SSE 04:30:41 10° SE visible
03 Oct - 06:16:09 10° SW 06:20:55 22° S 06:25:33 10° ESE visible
03 Oct - 08:08:35 10° SW 08:13:26 23° S 08:18:11 10° SE daylight
03 Oct - 10:02:33 10° SW 10:05:49 15° SSW 10:09:06 10° SSE daylight
04 Oct - 05:15:40 10° SSW 05:20:10 19° SSE 05:24:32 10° ESE visible
04 Oct - 07:07:40 10° SW 07:12:42 24° S 07:17:35 10° SE daylight
04 Oct - 09:01:02 10° SW 09:05:09 18° SSW 09:09:12 10° SSE daylight
05 Oct - 04:15:25 10° SSW 04:19:25 16° SSE 04:23:17 10° SE visible
05 Oct - 06:06:49 10° SW 06:11:57 24° S 06:16:53 10° SE visible
05 Oct - 07:59:48 10° WSW 08:04:27 21° S 08:09:00 10° SE daylight
05 Oct - 09:55:26 10° SW 09:56:45 11° SSW 09:58:04 10° S daylight
06 Oct - 03:15:39 10° S 03:18:39 13° SSE 03:21:34 10° SE visible
06 Oct - 05:06:03 10° SW 05:11:10 23° S 05:16:04 10° ESE visible
06 Oct - 06:58:40 10° WSW 07:03:43 24° S 07:08:36 10° SE daylight
06 Oct - 08:52:49 10° SW 08:56:06 15° SSW 08:59:21 10° SSE daylight
07 Oct - 04:05:25 10° SSW 04:10:22 21° SSE 04:15:06 10° ESE visible
07 Oct - 05:57:37 10° SW 06:02:57 25° S 06:08:03 10° SE visible
07 Oct - 07:51:10 10° WSW 07:55:25 18° SSW 07:59:34 10° SSE daylight
08 Oct - 03:05:02 10° SSW 03:09:33 18° SSE 03:13:53 10° ESE visible
08 Oct - 04:56:40 10° SW 05:02:10 25° S 05:07:23 10° SE visible
08 Oct - 06:49:48 10° WSW 06:54:43 22° SSW 06:59:27 10° SE daylight
08 Oct - 08:45:38 10° SW 08:47:01 11° SSW 08:48:23 10° SSW daylight
